TimeCDT,TemperatureF,Dew PointF,Humidity,Sea Level PressureIn,VisibilityMPH,Wind Direction,Wind SpeedMPH,Gust SpeedMPH,PrecipitationIn,Events,Conditions,WindDirDegrees,DateUTC
12:15 AM,32.0,25.7,78,29.90,5.0,SE,8.1,-,N/A,Snow,Light Snow,130,2013-03-22 05:15:00
12:35 AM,31.5,26.6,82,29.90,3.0,ESE,6.9,-,N/A,Snow,Light Snow,120,2013-03-22 05:35:00
12:55 AM,31.1,27.9,88,29.90,2.0,SE,6.9,-,N/A,Snow,Light Snow,130,2013-03-22 05:55:00
1:15 AM,31.1,28.4,90,29.89,2.0,SE,6.9,-,N/A,Snow,Light Snow,130,2013-03-22 06:15:00
1:35 AM,30.7,28.4,91,29.88,2.0,SE,8.1,-,N/A,Snow,Light Snow,130,2013-03-22 06:35:00
1:55 AM,30.6,28.4,92,29.88,3.0,SE,8.1,-,N/A,Snow,Light Snow,130,2013-03-22 06:55:00
2:15 AM,30.6,28.8,93,29.89,5.0,SE,5.8,-,N/A,Snow,Light Snow,130,2013-03-22 07:15:00
2:35 AM,30.2,28.4,93,29.90,2.5,SE,6.9,-,N/A,Snow,Light Snow,140,2013-03-22 07:35:00
2:55 AM,30.6,28.8,93,29.89,3.0,SE,5.8,-,N/A,Snow,Light Snow,140,2013-03-22 07:55:00
3:15 AM,30.4,28.8,94,29.89,3.0,SSE,5.8,-,N/A,Snow,Light Snow,150,2013-03-22 08:15:00
3:35 AM,30.6,28.9,94,29.90,3.0,South,3.5,-,N/A,Snow,Light Snow,170,2013-03-22 08:35:00
3:55 AM,30.7,29.1,94,29.89,4.0,South,3.5,-,N/A,,Overcast,170,2013-03-22 08:55:00
4:15 AM,31.1,29.5,94,29.89,5.0,South,6.9,-,N/A,,Overcast,170,2013-03-22 09:15:00
4:35 AM,31.1,29.7,94,29.89,5.0,South,5.8,-,N/A,,Overcast,180,2013-03-22 09:35:00
4:55 AM,31.5,29.7,93,29.87,5.0,South,5.8,-,N/A,,Overcast,170,2013-03-22 09:55:00
5:15 AM,31.1,29.3,93,29.86,5.0,South,6.9,-,N/A,,Overcast,170,2013-03-22 10:15:00
5:35 AM,31.1,29.3,93,29.86,5.0,SSE,4.6,-,N/A,,Overcast,160,2013-03-22 10:35:00
5:55 AM,31.5,29.8,94,29.86,4.0,SSE,5.8,-,N/A,,Overcast,150,2013-03-22 10:55:00
6:15 AM,31.5,29.8,94,29.86,4.0,SSE,5.8,-,N/A,,Overcast,150,2013-03-22 11:15:00
6:35 AM,31.3,29.7,94,29.85,4.0,SSE,5.8,-,N/A,,Overcast,150,2013-03-22 11:35:00
6:55 AM,31.1,29.8,95,29.85,3.0,SSE,6.9,-,N/A,,Overcast,160,2013-03-22 11:55:00
7:15 AM,31.1,29.8,95,29.86,4.0,SSE,8.1,-,N/A,,Overcast,150,2013-03-22 12:15:00
7:35 AM,31.1,29.7,94,29.85,4.0,SSE,8.1,-,N/A,,Overcast,150,2013-03-22 12:35:00
7:55 AM,31.1,29.5,94,29.86,4.0,SE,6.9,-,N/A,,Overcast,140,2013-03-22 12:55:00
8:15 AM,31.1,29.7,94,29.87,2.0,SSE,8.1,-,N/A,,Overcast,150,2013-03-22 13:15:00
8:35 AM,30.4,28.9,94,29.87,1.2,SE,8.1,-,N/A,,Overcast,140,2013-03-22 13:35:00
8:55 AM,30.2,28.8,94,29.86,1.0,SE,8.1,-,N/A,,Overcast,140,2013-03-22 13:55:00
9:15 AM,30.6,29.3,95,29.87,1.0,SSE,9.2,-,N/A,,Overcast,150,2013-03-22 14:15:00
9:35 AM,31.3,30.2,96,29.87,1.8,SSE,11.5,-,N/A,,Overcast,160,2013-03-22 14:35:00
9:55 AM,31.5,30.2,95,29.87,1.8,SSE,10.4,-,N/A,,Overcast,150,2013-03-22 14:55:00
10:15 AM,31.5,30.0,94,29.89,1.8,South,9.2,-,N/A,,Overcast,170,2013-03-22 15:15:00
10:35 AM,32.0,30.4,94,29.89,2.0,South,10.4,-,N/A,,Overcast,180,2013-03-22 15:35:00
10:55 AM,32.0,30.6,94,29.89,1.5,South,10.4,-,N/A,,Overcast,180,2013-03-22 15:55:00
11:15 AM,32.0,31.1,96,29.89,2.0,South,10.4,-,N/A,,Overcast,190,2013-03-22 16:15:00
11:35 AM,32.5,31.6,96,29.88,2.0,South,8.1,-,N/A,,Overcast,180,2013-03-22 16:35:00
11:55 AM,32.9,31.8,96,29.88,2.5,South,8.1,-,N/A,,Overcast,170,2013-03-22 16:55:00
12:15 PM,33.8,32.0,93,29.88,4.0,South,6.9,-,N/A,,Overcast,170,2013-03-22 17:15:00
12:35 PM,34.2,32.2,92,29.88,4.0,South,8.1,-,N/A,,Overcast,170,2013-03-22 17:35:00
12:55 PM,34.7,32.7,92,29.87,4.0,SSE,8.1,-,N/A,,Overcast,160,2013-03-22 17:55:00
1:15 PM,35.6,32.9,90,29.88,5.0,South,6.9,-,N/A,,Overcast,170,2013-03-22 18:15:00
1:35 PM,36.1,33.4,90,29.88,5.0,SSE,6.9,-,N/A,,Overcast,160,2013-03-22 18:35:00
1:55 PM,36.3,33.3,89,29.87,5.0,SSE,5.8,-,N/A,,Overcast,150,2013-03-22 18:55:00
2:15 PM,36.5,33.4,89,29.87,5.0,ESE,8.1,-,N/A,,Overcast,120,2013-03-22 19:15:00
2:35 PM,36.9,33.8,89,29.86,7.0,ESE,6.9,-,N/A,,Overcast,120,2013-03-22 19:35:00
2:55 PM,37.6,34.2,87,29.86,5.0,ESE,6.9,-,N/A,,Overcast,120,2013-03-22 19:55:00
3:15 PM,37.9,34.5,87,29.85,7.0,ESE,5.8,-,N/A,,Overcast,110,2013-03-22 20:15:00
3:35 PM,38.3,34.5,86,29.85,7.0,East,5.8,-,N/A,,Overcast,90,2013-03-22 20:35:00
3:55 PM,38.8,34.9,86,29.85,7.0,East,6.9,-,N/A,,Overcast,90,2013-03-22 20:55:00
4:15 PM,39.0,34.7,84,29.85,7.0,East,5.8,-,N/A,,Overcast,80,2013-03-22 21:15:00
4:35 PM,39.4,34.7,83,29.85,7.0,East,9.2,-,N/A,,Overcast,90,2013-03-22 21:35:00
4:55 PM,39.7,35.1,83,29.85,7.0,East,11.5,-,N/A,,Overcast,100,2013-03-22 21:55:00
5:15 PM,39.0,33.8,82,29.85,7.0,East,8.1,-,N/A,,Overcast,100,2013-03-22 22:15:00
5:35 PM,38.8,33.4,81,29.86,7.0,East,9.2,-,N/A,,Overcast,100,2013-03-22 22:35:00
5:55 PM,38.7,33.3,81,29.87,7.0,East,8.1,-,N/A,,Overcast,100,2013-03-22 22:55:00
6:15 PM,38.7,33.3,81,29.87,7.0,ESE,8.1,-,N/A,,Overcast,110,2013-03-22 23:15:00
6:35 PM,38.7,33.1,80,29.87,10.0,ESE,8.1,-,N/A,,Overcast,110,2013-03-22 23:35:00
6:55 PM,38.5,33.1,81,29.87,10.0,East,8.1,-,N/A,,Overcast,100,2013-03-22 23:55:00
7:15 PM,38.1,33.1,82,29.88,7.0,East,6.9,-,N/A,,Overcast,100,2013-03-23 00:15:00
7:35 PM,37.8,32.9,83,29.89,7.0,East,6.9,-,N/A,,Overcast,80,2013-03-23 00:35:00
7:55 PM,37.4,32.9,84,29.90,10.0,ENE,6.9,-,N/A,,Overcast,70,2013-03-23 00:55:00
8:15 PM,36.7,32.9,86,29.90,7.0,ENE,13.8,-,N/A,,Overcast,70,2013-03-23 01:15:00
8:35 PM,36.0,32.5,87,29.90,7.0,ENE,9.2,-,N/A,,Overcast,70,2013-03-23 01:35:00
8:55 PM,35.4,32.2,88,29.90,7.0,ENE,10.4,-,N/A,,Overcast,70,2013-03-23 01:55:00
9:15 PM,34.9,32.0,89,29.91,7.0,East,9.2,-,N/A,,Overcast,80,2013-03-23 02:15:00
9:35 PM,34.2,31.8,91,29.91,7.0,ENE,9.2,-,N/A,,Overcast,70,2013-03-23 02:35:00
9:55 PM,33.1,31.5,94,29.91,5.0,East,9.2,-,N/A,,Mostly Cloudy,80,2013-03-23 02:55:00
10:15 PM,32.0,30.4,94,29.91,5.0,ENE,6.9,-,N/A,,Scattered Clouds,70,2013-03-23 03:15:00
10:35 PM,33.8,32.0,93,29.94,5.0,East,6.9,-,N/A,,Mostly Cloudy,90,2013-03-23 03:35:00
10:55 PM,34.0,32.0,92,29.91,5.0,ENE,10.4,-,N/A,,Overcast,70,2013-03-23 03:55:00
11:15 PM,33.8,32.0,93,29.93,5.0,East,8.1,-,N/A,,Overcast,90,2013-03-23 04:15:00
11:35 PM,33.4,32.0,94,29.93,5.0,East,9.2,-,N/A,,Overcast,90,2013-03-23 04:35:00
11:55 PM,33.4,31.8,94,29.95,5.0,ESE,8.1,-,N/A,,Overcast,110,2013-03-23 04:55:00